Location: Bishopstone
(51.0167°N, 1.9000°W)
Time: 11:15:01
(UTC+00:00)

Cosmos 2322 Rocket - Pass Details

Date: 16 September 2019
Orbit: 834 x 849 km, 71.0° (Epoch: 19 October)

Event Time Altitude Azimuth Distance (km) Brightness Sun altitude
Rises 18:44:01 0° 324° (NW) 3,395 6.1 -4.5°
Reaches altitude 10° 18:46:40 10° 315° (NW) 2,455 5.6 -4.9°
Maximum altitude 18:51:36 33° 254° (WSW) 1,383 4.1 -5.7°
Drops below altitude 10° 18:56:31 10° 192° (SSW) 2,441 4.6 -6.5°
Sets 18:59:10 0° 183° (S) 3,371 5.2 -6.9°
